Flight Track Log - Related Links

Times and Time Zones

All times are in EDT time to prevent confusion due to time zone crossing. See the N493TM flight status page for this flight to view local times or setup timezone preferences in your user account.

Time Position Orientation Groundspeed Altitude Reporting Facility
EDT Latitude Longitude Course Direction KTS MPH feet Rate Location/Type
09:51 42.3567 -87.8717 180° South 236 272 3,700  Level Chicago Center
09:52 42.2914 -87.8697 179° South 238 274 5,800 2,081 Climbing Chicago Center
09:53 42.2142 -87.8592 174° South 278 320 8,000 2,256 Climbing Chicago Center
09:54 42.1333 -87.8564 179° South 291 335 10,500 1,968 Climbing Chicago Center
09:55 42.0489 -87.8522 178° South 305 351 12,100 1,742 Climbing Chicago Center
09:56 41.8308 -87.9500 180° South  Level FlightAware Approximate
09:56 41.9394 -87.8650 185° South 331 381 14,100  Level Chicago Center
09:57 41.8522 -87.8914 193° South 323 372 16,100 1,887 Climbing Chicago Center
09:58 41.7656 -87.9183 193° South 321 369 18,000 1,694 Climbing Chicago Center
09:59 41.6786 -87.9461 193° South 323 372 19,600 1,645 Climbing Chicago Center
10:00 41.5864 -87.9742 193° South 339 390 21,400 1,790 Climbing Chicago Center
10:01 41.4914 -88.0036 193° South 348 400 23,300 1,790 Climbing Chicago Center
10:02 41.3894 -88.0372 194° South 354 407 25,100 1,839 Climbing Chicago Center
10:03 41.2664 -88.0775 194° South 369 425 27,100 1,742 Climbing Chicago Center
10:04 41.1692 -88.1069 193° South 364 419 28,700 1,452 Climbing Chicago Center
10:05 41.0753 -88.1344 192° South 352 405 30,100 1,104 Climbing Chicago Center
10:06 40.9789 -88.1614 192° South 353 406 31,000 816 Climbing Chicago Center
10:07 40.8853 -88.2106 202° Southwest 362 417 31,800 774 Climbing Chicago Center
10:08 40.7956 -88.2753 209° Southwest 368 423 32,600 919 Climbing Chicago Center
10:09 40.6864 -88.3528 208° Southwest 372 428 33,700 1,065 Climbing Chicago Center
10:10 40.5928 -88.4194 208° Southwest 381 438 34,800 1,161 Climbing Chicago Center
10:11 40.5000 -88.4875 209° Southwest 384 442 36,100 1,161 Climbing Chicago Center
10:12 40.4036 -88.5544 208° Southwest 378 435 37,200 1,016 Climbing Chicago Center
10:14 40.3106 -88.6186 208° Southwest 377 434 38,200 968 Climbing Chicago Center
10:15 40.2172 -88.6850 209° Southwest 380 437 39,200 923 Climbing Chicago Center
10:15 40.1236 -88.7483 207° Southwest 375 432 40,000 410 Climbing Kansas City Center
10:17 40.0303 -88.8128 208° Southwest 377 434 40,000  Level Kansas City Center
10:18 39.9325 -88.8811 208° Southwest 391 450 40,000  Level Kansas City Center
10:19 39.8344 -88.9494 208° Southwest 397 457 40,000  Level Kansas City Center
10:20 39.7361 -89.0189 209° Southwest 400 460 40,000  Level Kansas City Center
10:21 39.6381 -89.0861 208° Southwest 399 459 40,000  Level Kansas City Center
10:22 39.5228 -89.1647 208° Southwest 392 451 40,000  Level Kansas City Center
10:23 39.4278 -89.2300 208° Southwest 388 447 40,000  Level Kansas City Center
10:24 39.3431 -89.2883 208° Southwest 385 443 40,000  Level Kansas City Center
10:25 39.2472 -89.3528 208° Southwest 386 444 40,000  Level Kansas City Center
10:26 39.1331 -89.4314 208° Southwest 382 440 40,000  Level Kansas City Center
10:27 39.0397 -89.4956 208° Southwest 381 438 40,000  Level Kansas City Center
10:28 38.9381 -89.5642 208° Southwest 383 441 40,000  Level Kansas City Center
10:29 38.8442 -89.6278 208° Southwest 383 441 40,000  Level Kansas City Center
10:30 38.7558 -89.6844 207° Southwest 387 445 40,000  Level Kansas City Center
10:31 38.6611 -89.7478 208° Southwest 385 443 40,000  Level Kansas City Center
10:32 38.5469 -89.8239 208° Southwest 383 441 40,000  Level Kansas City Center
10:33 38.4517 -89.8881 208° Southwest 384 442 40,000  Level Kansas City Center
10:34 38.3572 -89.9503 207° Southwest 382 440 40,000  Level Kansas City Center
10:35 38.2625 -90.0128 207° Southwest 382 440 40,000  Level Kansas City Center
10:36 38.1644 -90.0756 207° Southwest 391 450 40,000  Level Kansas City Center
10:37 38.0711 -90.1392 208° Southwest 385 443 40,000  Level Kansas City Center
10:38 37.9750 -90.1994 206° Southwest 385 443 40,000  Level Kansas City Center
10:39 37.8606 -90.2750 208° Southwest 386 444 40,000  Level Kansas City Center
10:40 37.7642 -90.3400 208° Southwest 390 449 40,000  Level Kansas City Center
10:41 37.6686 -90.4031 208° Southwest 389 448 40,000  Level Kansas City Center
10:42 37.5722 -90.4614 206° Southwest 387 445 40,000  Level Kansas City Center
10:43 37.4772 -90.5244 208° Southwest 386 444 40,000  Level Kansas City Center
10:44 37.3814 -90.5853 207° Southwest 386 444 40,000  Level Kansas City Center
10:45 37.2667 -90.6633 208° Southwest 385 443 40,000  Level Kansas City Center
10:46 37.1897 -90.7136 208° Southwest 395 455 40,000  Level Memphis Center
10:47 37.1125 -90.7600 206° Southwest 395 455 40,000 -750 Level Memphis Center
10:48 36.9978 -90.8347 207° Southwest 392 451 38,500 -1,750 Descending Memphis Center
10:49 36.9078 -90.8939 208° Southwest 386 444 36,500 -1,750 Descending Memphis Center
10:50 36.8181 -90.9506 207° Southwest 375 432 35,000 -1,200 Descending Memphis Center
10:51 36.7261 -91.0067 206° Southwest 370 426 34,100 -950 Descending Memphis Center
10:52 36.6297 -91.0681 207° Southwest 375 432 33,100 -550 Descending Memphis Center
10:53 36.5419 -91.1214 206° Southwest 385 443 33,000 -450 Descending Memphis Center
10:54 36.4353 -91.1875 207° Southwest 385 443 32,200 -1,150 Descending Memphis Center
10:55 36.3411 -91.2458 207° Southwest 385 443 30,700 -1,450 Descending Memphis Center
10:56 36.2406 -91.3092 207° Southwest 395 455 29,300 -1,450 Descending Memphis Center
10:57 36.1358 -91.3747 207° Southwest 408 470 27,800 -1,500 Descending Memphis Center
10:58 36.0289 -91.4400 206° Southwest 420 483 26,300 -1,400 Descending Memphis Center
10:59 35.9242 -91.5028 206° Southwest 426 490 25,000 -650 Descending Memphis Center
11:00 35.8233 -91.5681 208° Southwest 421 484 25,000 -200 Level Memphis Center
11:01 35.7228 -91.6281 206° Southwest 415 478 24,600 -1,300 Descending Memphis Center
11:02 35.6283 -91.6853 206° Southwest 396 456 22,400 -2,618 Descending Memphis Center
11:03 35.5569 -91.7275 206° Southwest 343 395 19,800 -3,088 Descending Memphis Center
11:03 35.5294 -91.7447 207° Southwest 342 394 18,900 -2,571 Descending Memphis Center
11:04 35.4561 -91.7894 206° Southwest 359 413 16,800 -2,625 Descending Memphis Center
11:05 35.3719 -91.8417 207° Southwest 353 406 14,000 -2,800 Descending Memphis Center
11:06 35.2858 -91.8908 205° Southwest 341 392 11,200 -2,000 Descending Memphis Center
11:07 35.2039 -91.9403 206° Southwest 341 392 10,000 -650 Descending Memphis Center
11:08 35.1283 -91.9869 207° Southwest 327 376 9,900 -992 Descending Memphis Center
11:09 35.0361 -92.0081 191° South 261 300 7,800 -1,940 Descending Memphis Center
11:10 34.9650 -92.0194 187° South 269 310 5,600 -1,570 Descending Memphis Center
11:11 34.9128 -92.0286 188° South 271 312 5,000 -1,121 Descending Memphis Center
11:12 34.8581 -92.0628 207° Southwest 252 290 3,600 -1,280 Descending Memphis Center
11:12 34.8494 -92.0753 230° Southwest 214 246 3,400 -1,100 Descending Memphis Center
11:13 34.8197 -92.1153 228° Southwest 226 260 2,500 -1,200 Descending Memphis Center
11:13 34.8069 -92.1300 223° Southwest 208 239 2,200 -900 Descending Memphis Center
11:14 34.7814 -92.1675 230° Southwest 217 250 1,600 -984 Descending Memphis Center
11:15 34.7708 -92.1750 210° Southwest 188 216 1,200 -300 Descending Memphis Center
11:15 34.7311 -92.1817 188° South 201 231 1,300 -700 Climbing Memphis Center
11:16 34.7433 -92.2122 296° West 122 140 500  Descending Memphis Center
11:16 34.7211 -92.1561 116° Southeast 88 101 1,300 577 Climbing Memphis Center
11:17 34.7439 -92.1667 339° North 40 46 1,500 200 Climbing Memphis Center
11:19 34.7167 -92.2167 270° West  Level FlightAware Approximate
11:26 34.7294 -92.2248 270° West  Level Estimated
11:27 34.7294 -92.2248 270° West  Level Estimated
11:28 34.7294 -92.2248 270° West  Level Estimated
11:29 34.7294 -92.2248 270° West  Level Estimated
11:30 34.7294 -92.2248 270° West  Level Estimated

Login

Don't have an account? Register now (free) for customized features, flight alerts, and more!